Location: Burjasot
(39.5167°N, 0.4167°W)
Time: 16:23:12
(UTC+02:00)

ISS - Pass Details

Date: 21 May 2019
Orbit: 407 x 418 km, 51.6° (Epoch: 24 June)

Event Time Altitude Azimuth Distance (km) Brightness Sun altitude
Rises 00:10:59 0° 289° (WNW) 2,354 0.7 -25.4°
Reaches altitude 10° 00:14:02 10° 319° (NW) 1,496 0.0 -25.6°
Maximum altitude 00:15:38 13° 348° (NNW) 1,340 -0.3 -25.8°
Drops below altitude 10° 00:17:14 10° 16° (NNE) 1,501 -0.4 -25.9°
Enters shadow 00:23:21 -8° 60° (ENE) 3,471 1.0 -26.4°
